sat.trackr.live / text

‹ back to catalog

STARLINK-35277

NORAD 65832 · 2025-221K

PAYLOAD ACTIVE UNKNOWN

§ Identity

Operator
Country
US
Launch date
2025-09-29
Launch site
AFWTR
Launch vehicle
Mass (kg)
RCS (m²)

Purposes: comms

External: N2YO · Heavens-Above · Gunter

§ Orbital elements

Epoch: 2026-09-20T23:27:06.432192Z

Period
93.85 min
Inclination
53.1604°
Eccentricity
0.0001476
Mean motion
15.34396182 rev/d
Perigee alt
461.7 km
Apogee alt
463.7 km
Semi-major
6,840.9 km
B*
3.7632e-4
RAAN
257.6529°
Arg perigee
75.7392°
Mean anomaly
284.3774°
Rev number
5,603

§ Raw data

STARLINK-352771 65832U 25221K   26263.97715778  .00012358  00000+0  37632-3 0  99982 65832  53.1604 257.6529 0001476  75.7392 284.3774 15.34396182 56033

JSON: /api/v1/satellites/65832 · /tle

For live sub-satellite position, see the globe view (requires WebGL).

§ Visibility from observer

Set your observer location to see the next 7 days of passes ≥ 10°. The values pass through the URL so the page stays shareable.

No JS? Fill the form by hand. The geolocation button needs JavaScript.